Edinburg, TX

10:15 AM CST on December 05, 2016 (GMT -0600)
Edinburg

Weather History for KEBG - October, 2012

Change the Weather History Date:

Tuesday, October 30, 2012

  Actual Average (KMFE) Record (KMFE)
Temperature  
Mean Temperature 70 °F 74 °F  
Max Temperature 87 °F 85 °F 94 °F (1972)
Min Temperature 54 °F 64 °F 44 °F (1993)
Degree Days  
Heating Degree Days 0 0  
Month to date heating degree days 0  
Since 1 July heating degree days 0  
Cooling Degree Days 6 10  
Month to date cooling degree days 374  
Year to date cooling degree days 4173  
Growing Degree Days 20 (Base 50)    
Moisture  
Dew Point 55 °F    
Average Humidity 60    
Maximum Humidity 81    
Minimum Humidity 33    
Precipitation  
Precipitation 0.00 in 0.06 in 1.69 in (1991)
Month to date precipitation 2.03  
Year to date precipitation 20.07  
Sea Level Pressure  
Sea Level Pressure 30.04 in    
Wind  
Wind Speed 4 mph (SE)    
Max Wind Speed 16 mph    
Max Gust Speed 25 mph    
Visibility 8 miles    
Events      
T = Trace of Precipitation, MM = Missing Value Source: NWS Daily Summary

Daily Weather History Graph

Daily Weather History Graph

Search for Another Location

Airport or City:

Trip Planner

Search our weather history database for the weather conditions in past years. The results will help you decide how hot, cold, wet, or windy it might be!

Date:

Astronomy

Oct. 30, 2012 Rise Set
Actual Time 7:40 AM CDT 6:51 PM CDT
Civil Twilight 7:16 AM CDT 7:14 PM CDT
Nautical Twilight 6:49 AM CDT 7:42 PM CDT
Astronomical Twilight 6:22 AM CDT 8:09 PM CDT
Moon 7:29 PM CDT (10/30) 8:21 AM CDT (10/30)
Length of Visible Light 11h 57m
Length of Day
11h 10m
Full, 99% of the Moon is Illuminated
Oct 30
Full
Nov 6
Last Quarter
Nov 13
New
Nov 20
First Quarter
Nov 28
Full

Hourly Weather History & Observations

Time (CDT) Temp. Heat Index Dew Point Humidity Pressure Visibility Wind Dir Wind Speed Gust Speed Precip Events Conditions
12:15 AM 61.3 °F - 52.2 °F 72% 30.14 in 10.0 mi Calm Calm - N/A   Clear
12:35 AM 61.3 °F - 51.8 °F 71% 30.14 in 10.0 mi Calm Calm - N/A   Clear
12:55 AM 61.0 °F - 52.0 °F 72% 30.13 in 10.0 mi Calm Calm - N/A   Clear
1:15 AM 61.3 °F - 52.9 °F 74% 30.13 in 10.0 mi Calm Calm - N/A   Clear
1:35 AM 59.9 °F - 49.8 °F 69% 30.13 in 10.0 mi Calm Calm - N/A   Clear
1:55 AM 59.0 °F - 48.4 °F 68% 30.12 in 10.0 mi Calm Calm - N/A   Clear
2:15 AM 58.3 °F - 49.6 °F 73% 30.12 in 10.0 mi Calm Calm - N/A   Clear
2:55 AM 58.5 °F - 48.4 °F 69% 30.10 in 10.0 mi Calm Calm - N/A   Clear
3:35 AM 57.7 °F - 49.6 °F 74% 30.09 in 10.0 mi Calm Calm - N/A   Clear
3:55 AM 57.6 °F - 49.3 °F 74% 30.09 in 10.0 mi Calm Calm - N/A   Clear
4:15 AM 57.9 °F - 50.4 °F 76% 30.08 in 10.0 mi Calm Calm - N/A   Clear
4:35 AM 56.8 °F - 49.3 °F 76% 30.07 in 7.0 mi Calm Calm - N/A   Clear
4:55 AM 57.0 °F - 49.3 °F 75% 30.07 in 7.0 mi Calm Calm - N/A   Clear
5:35 AM 55.6 °F - 47.7 °F 75% 30.07 in 7.0 mi Calm Calm - N/A   Clear
5:55 AM 55.9 °F - 48.0 °F 75% 30.07 in 7.0 mi Calm Calm - N/A   Clear
6:15 AM 55.4 °F - 47.5 °F 75% 30.07 in 7.0 mi Calm Calm - N/A   Clear
6:35 AM 55.4 °F - 47.5 °F 75% 30.07 in 7.0 mi Calm Calm - N/A   Clear
6:55 AM 54.9 °F - 47.3 °F 76% 30.08 in 7.0 mi Calm Calm - N/A   Clear
7:15 AM 54.1 °F - 47.3 °F 78% 30.08 in 7.0 mi Calm Calm - N/A   Clear
7:35 AM 54.7 °F - 48.2 °F 79% 30.08 in 7.0 mi Calm Calm - N/A   Clear
7:55 AM 54.5 °F - 48.6 °F 80% 30.08 in 7.0 mi Calm Calm - N/A   Clear
8:15 AM 55.4 °F - 49.5 °F 80% 30.08 in 7.0 mi Calm Calm - N/A   Clear
8:35 AM 57.4 °F - 50.2 °F 77% 30.08 in 5.0 mi Calm Calm - N/A   Haze
8:55 AM 59.9 °F - 51.4 °F 74% 30.08 in 7.0 mi Calm Calm - N/A   Clear
9:15 AM 63.5 °F - 53.6 °F 70% 30.09 in 5.0 mi Calm Calm - N/A   Haze
9:35 AM 66.9 °F - 54.7 °F 65% 30.09 in 7.0 mi SE 3.5 mph - N/A   Clear
10:15 AM 73.8 °F - 57.2 °F 56% 30.09 in 7.0 mi SE 9.2 mph - N/A   Clear
10:35 AM 76.3 °F - 57.6 °F 52% 30.09 in 7.0 mi SE 11.5 mph - N/A   Clear
10:55 AM 77.9 °F - 57.9 °F 50% 30.09 in 7.0 mi SE 11.5 mph 18.4 mph N/A   Clear
11:15 AM 78.3 °F - 58.5 °F 50% 30.09 in 7.0 mi SSE 8.1 mph - N/A   Clear
11:55 AM 80.2 °F 80.6 °F 57.7 °F 46% 30.07 in 7.0 mi South 11.5 mph - N/A   Clear
12:15 PM 81.3 °F 80.9 °F 55.0 °F 40% 30.06 in 10.0 mi SSE 8.1 mph - N/A   Clear
12:35 PM 82.0 °F 81.4 °F 54.7 °F 39% 30.05 in 7.0 mi SSE 10.4 mph 16.1 mph N/A   Clear
12:55 PM 82.4 °F 81.7 °F 55.2 °F 39% 30.04 in 7.0 mi South 5.8 mph 17.3 mph N/A   Scattered Clouds
1:15 PM 81.5 °F 81.0 °F 55.2 °F 40% 30.03 in 7.0 mi ESE 4.6 mph - N/A   Scattered Clouds
1:35 PM 83.1 °F 82.3 °F 55.6 °F 39% 30.02 in 7.0 mi SE 11.5 mph 16.1 mph N/A   Scattered Clouds
1:55 PM 83.7 °F 82.7 °F 55.6 °F 38% 30.01 in 7.0 mi SSE 5.8 mph - N/A   Mostly Cloudy
2:15 PM 85.3 °F 83.8 °F 54.9 °F 35% 30.00 in 7.0 mi South 6.9 mph - N/A   Mostly Cloudy
2:35 PM 85.5 °F 84.0 °F 54.9 °F 35% 29.99 in 7.0 mi SSE 13.8 mph - N/A   Mostly Cloudy
2:55 PM 84.7 °F 83.6 °F 55.6 °F 37% 29.98 in 5.0 mi SE 10.4 mph - N/A   Haze
3:15 PM 86.0 °F 84.5 °F 55.4 °F 35% 29.97 in 7.0 mi SSE 9.2 mph - N/A   Scattered Clouds
3:35 PM 87.1 °F 85.5 °F 55.4 °F 34% 29.96 in 7.0 mi SSE 13.8 mph 25.3 mph N/A   Scattered Clouds
3:55 PM 86.7 °F 85.1 °F 55.6 °F 34% 29.95 in 7.0 mi SE 9.2 mph 17.3 mph N/A   Scattered Clouds
4:15 PM 87.4 °F 85.7 °F 55.4 °F 33% 29.95 in 7.0 mi South 11.5 mph 17.3 mph N/A   Clear
4:35 PM 87.3 °F 85.7 °F 55.6 °F 34% 29.95 in 10.0 mi SE 12.7 mph 17.3 mph N/A   Scattered Clouds
4:55 PM 86.5 °F 85.1 °F 55.6 °F 35% 29.94 in 7.0 mi SE 9.2 mph - N/A   Scattered Clouds
5:15 PM 86.2 °F 84.9 °F 56.1 °F 36% 29.94 in 7.0 mi SE 11.5 mph - N/A   Clear
5:35 PM 85.5 °F 84.6 °F 57.9 °F 39% 29.95 in 7.0 mi SSE 11.5 mph - N/A   Clear
6:15 PM 82.9 °F 82.8 °F 59.2 °F 44% 29.95 in 7.0 mi SE 16.1 mph - N/A   Clear
6:35 PM 81.7 °F 82.2 °F 60.1 °F 48% 29.96 in 7.0 mi ESE 13.8 mph - N/A   Clear
7:15 PM 79.2 °F - 61.0 °F 54% 29.97 in 7.0 mi SE 12.7 mph - N/A   Clear
7:35 PM 78.3 °F - 61.3 °F 56% 29.97 in 7.0 mi SE 13.8 mph - N/A   Clear
7:55 PM 77.2 °F - 61.7 °F 59% 29.98 in 7.0 mi SE 11.5 mph - N/A   Clear
8:15 PM 76.5 °F - 61.9 °F 61% 29.98 in 7.0 mi SE 11.5 mph - N/A   Clear
8:35 PM 75.4 °F - 62.1 °F 63% 29.98 in 10.0 mi SE 10.4 mph - N/A   Clear
8:55 PM 74.7 °F - 62.1 °F 65% 29.99 in 7.0 mi SE 6.9 mph - N/A   Clear
9:15 PM 73.4 °F - 62.2 °F 68% 29.99 in 10.0 mi SE 8.1 mph - N/A   Clear
9:35 PM 72.9 °F - 62.6 °F 70% 30.00 in 7.0 mi SE 6.9 mph - N/A   Clear
9:55 PM 71.6 °F - 62.2 °F 72% 30.01 in 10.0 mi SE 5.8 mph - N/A   Clear
10:15 PM 70.7 °F - 62.1 °F 74% 30.01 in 7.0 mi SE 5.8 mph - N/A   Clear
10:35 PM 69.8 °F - 62.1 °F 76% 30.01 in 7.0 mi SE 5.8 mph - N/A   Clear
10:55 PM 69.1 °F - 61.7 °F 77% 30.00 in 7.0 mi SE 5.8 mph - N/A   Clear
11:15 PM 68.9 °F - 61.9 °F 78% 30.00 in 7.0 mi SE 5.8 mph - N/A   Clear
11:35 PM 68.2 °F - 61.7 °F 80% 29.99 in 10.0 mi SE 5.8 mph - N/A   Clear
11:55 PM 67.6 °F - 61.7 °F 81% 29.99 in 7.0 mi SE 5.8 mph - N/A   Clear